User: anonymous
Location: Unspecified
(0.0000°N, 0.0000°E)
Time: 23:51:08
(UTC+02:00)
Language:

Resurs 01 Rocket - Orbit

View from above orbital plane
View from above orbital plane
View from above satellite
View from above satellite

Ground track
Ground track

The orbit data is extracted from the following two-line orbital elements,

1 23343U 94074B   14261.49421627  .00000398  00000-0  65292-4 0  1077
2 23343 098.2262 267.0707 0007813 053.3292 062.8506 14.76190962 68868
Epoch (UTC): 18 September 2014 11:51:40
Eccentricity: 0.0007813
inclination: 98.2262°
perigee height: 636 km
apogee height: 647 km
right ascension of ascending node: 267.0707°
argument of perigee: 53.3292°
revolutions per day: 14.76190962
mean anomaly at epoch: 62.8506°
orbit number at epoch: 6886

The dashed part of the orbit path shows where the satellite is in the earth's shadow,  

DLR